This is the latest recevied weather packets stored in our database for station/object FW0727. If no packets are shown the sender has not sent any weather packets the latest 10 day(s).
| Time | Temp. | Humidity | Pressure | Rain* | Wind** | Luminosity | Snow |
|---|---|---|---|---|---|---|---|
| 1777098797 | 15° C | 28% | 1014.6 hPa | - | - | - | - |
| 1777098444 | 15° C | 28% | 1014.6 hPa | - | - | - | - |
| 1777098099 | 14.44° C | 28% | 1014.6 hPa | - | - | - | - |
| 1777097753 | 14.44° C | 31% | 1014.7 hPa | - | - | - | - |
| 1777097408 | 13.89° C | 32% | 1014.7 hPa | - | - | - | - |
| 1777097062 | 13.89° C | 32% | 1014.7 hPa | - | - | - | - |
| 1777096718 | 13.33° C | 33% | 1014.7 hPa | - | - | - | - |
| 1777096366 | 13.33° C | 33% | 1014.8 hPa | - | - | - | - |
| 1777096013 | 13.33° C | 33% | 1014.7 hPa | - | - | - | - |
| 1777095329 | 13.33° C | 38% | 1014.6 hPa | - | - | - | - |
| 1777094319 | 11.67° C | 40% | 1014.6 hPa | - | - | - | - |
| 1777093967 | 11.11° C | 41% | 1014.5 hPa | - | - | - | - |
| 1777093615 | 10.56° C | 41% | 1014.5 hPa | - | - | - | - |
| 1777093262 | 10.56° C | 43% | 1014.5 hPa | - | - | - | - |
| 1777092910 | 10° C | 43% | 1014.5 hPa | - | - | - | - |
| 1777092557 | 9.44° C | 43% | 1014.6 hPa | - | - | - | - |
| 1777091876 | 8.33° C | 45% | 1014.6 hPa | - | - | - | - |
| 1777091195 | 7.78° C | 46% | 1014.7 hPa | - | - | - | - |
| 1777090840 | 7.22° C | 46% | 1014.7 hPa | - | - | - | - |
| 1777089830 | 6.67° C | 48% | 1014.6 hPa | - | - | - | - |
| 1777089479 | 6.11° C | 48% | 1014.6 hPa | - | - | - | - |
| 1777089127 | 6.11° C | 48% | 1014.5 hPa | - | - | - | - |
| 1777088775 | 6.11° C | 48% | 1014.5 hPa | - | - | - | - |
| 1777088422 | 6.11° C | 48% | 1014.5 hPa | - | - | - | - |
| 1777087413 | 6.11° C | 48% | 1014.3 hPa | - | - | - | - |
* Rain since midnight (hover to see other rain measurements)
** Current wind speed in m/s (hover to see current wind gust speed)